Regional Weather Roundup
Issued by NWS

Home | Current Version | Previous Version | Text Only | Print | Product List | Glossary Off
Versions: 1 2 3 4 5 6 7 8 9 10 11 12 13 14 15 16 17 18 19 20 21 22 23 24 25 26 27 28 29 30 31 32 33 34 35 36 37 38 39 40 41 42 43 44 45 46 47 48 49 50

000
ASUS43 KBIS 241602
RWRND

NORTH DAKOTA REGIONAL WEATHER ROUNDUP
NATIONAL WEATHER SERVICE BISMARCK ND
1100 AM CDT TUE MAY 24 2016

NOTE: "FAIR" INDICATES FEW OR NO CLOUDS BELOW 12,000 FEET WITH NO
SIGNIFICANT WEATHER AND/OR OBSTRUCTIONS TO VISIBILITY.


NDZ001>003-009>011-017-241700-
NORTHWEST NORTH DAKOTA

CITY           SKY/WX    TMP DP  RH WIND       PRES   REMARKS
WILLISTON      PTSUNNY   59  42  53 W8        29.88S
MINOT          SUNNY     69  43  38 SW8       29.86S
MINOT AFB      SUNNY     67  44  43 S7        29.85S
$$

NDZ018>021-031>035-040>046-241700-
SOUTHWEST NORTH DAKOTA

CITY           SKY/WX    TMP DP  RH WIND       PRES   REMARKS
BISMARCK       SUNNY     69  47  45 CALM      29.89S
DICKINSON      SUNNY     61  39  44 W9        29.90R
GARRISON         N/A     66  44  45 W12       29.89R
HETTINGER ARPT SUNNY     65  40  39 N3        29.93R
$$

NDZ004>008-012>016-024-026-027-054-241700-
NORTHEAST NORTH DAKOTA

CITY           SKY/WX    TMP DP  RH WIND       PRES   REMARKS
GRAND FORKS    MOSUNNY   71  54  54 W5        29.84R
GRND FRKS AFB  SUNNY     69  53  57 N6        29.85R
DEVILS LAKE    SUNNY     69  45  41 SW7       29.88R
$$

NDZ022-023-025-028>030-036>039-047>053-241700-
SOUTHEAST NORTH DAKOTA

CITY           SKY/WX    TMP DP  RH WIND       PRES   REMARKS
FARGO          SUNNY     79  47  32 S9        29.83R
JAMESTOWN      SUNNY     69  49  48 S5        29.87R
$$





USA.gov is the U.S. government's official web portal to all federal, state and local government web resources and services.